Simultaneous Nadir Overpasses (SNOs) Predictions

Prediction of SNOs between METOP-B and TERRA Satellite Orbit:

Table of predicted SNOs for the next 14.0 days since TLE Epoch: 7/30/2016
Index Date (METOP-B) Time (METOP-B) Lat,Lon (METOP-B) SZA (METOP-B ) Date (TERRA) Time (TERRA) Lat,Lon (TERRA) SZA (TERRA ) Distance(km) Time Diff (sec)
1 08/01/2016 16:52:35 81.27, -26.60 66.14 08/01/2016 16:53:28 81.27, -26.60 66.16 0.16 53
2 08/01/2016 17:43:15 -81.28, 141.11 113.81 08/01/2016 17:42:55 -81.27, 141.04 113.83 1.31 20
3 08/04/2016 12:27:00 81.27, 39.73 66.87 08/04/2016 12:27:42 81.27, 39.79 66.90 0.96 42
4 08/04/2016 13:17:40 -81.28,-152.51 113.07 08/04/2016 13:17:09 -81.27,-152.56 113.09 1.08 31
5 08/07/2016 08:01:24 81.27, 106.05 67.64 08/07/2016 08:01:55 81.26, 106.14 67.66 1.61 31
6 08/07/2016 08:52:03 -81.28, -85.75 112.25 08/07/2016 08:51:21 -81.29, -85.81 112.27 1.21 42
7 08/10/2016 03:35:48 81.27, 172.75 68.50 08/10/2016 03:36:08 81.28, 172.84 68.52 1.70 20
8 08/10/2016 04:26:28 -81.28, -19.40 111.43 08/10/2016 04:25:35 -81.28, -19.48 111.47 1.32 53
9 08/12/2016 23:10:13 81.27,-120.95 69.33 08/12/2016 23:10:22 81.27,-120.86 69.35 1.50 9




NCC Satellite Simultaneous Nadir Overpasses (SNOs) Prediction Service
